| time (UTC) | temp C | wind direction | speed KPH | gust KPH | rain 1hr cm | rain 24hr cm | rain mn cm | humidity % | barometer mb |
| 20260505130145 | 0 | 243 | 1.6 | 22.5 | 0.00 | 0.00 | 0.00 | 66 | 1005.8 |
| 20260505124145 | -1 | 261 | 6.4 | 16.1 | 0.00 | 0.00 | 0.00 | 70 | 1005.7 |
| 20260505123146 | -1 | 261 | 6.4 | 16.1 | 0.00 | 0.00 | 0.00 | 70 | 1005.7 |
| 20260505122145 | -1 | 11 | 8.0 | 14.5 | 0.00 | 0.03 | 0.00 | 72 | 1005.5 |
| 20260505121145 | -1 | 328 | 1.6 | 12.9 | 0.00 | 0.05 | 0.00 | 73 | 1005.4 |
| 20260505120146 | -1 | 328 | 1.6 | 12.9 | 0.00 | 0.05 | 0.00 | 73 | 1005.4 |
| 20260505115146 | -1 | 299 | 3.2 | 22.5 | 0.00 | 0.05 | 0.00 | 73 | 1005.1 |
| 20260505114146 | -1 | 299 | 3.2 | 22.5 | 0.00 | 0.05 | 0.00 | 73 | 1005.1 |
| 20260505113146 | -1 | 61 | 3.2 | 17.7 | 0.00 | 0.05 | 0.00 | 74 | 1004.9 |
| 20260505112145 | -1 | 61 | 3.2 | 17.7 | 0.00 | 0.05 | 0.00 | 74 | 1004.9 |
| 20260505111146 | -1 | 312 | 12.9 | 16.1 | 0.00 | 0.05 | 0.00 | 75 | 1004.6 |
| 20260505110146 | -1 | 312 | 12.9 | 16.1 | 0.00 | 0.05 | 0.00 | 75 | 1004.6 |
| 20260505102146 | -1 | 355 | 14.5 | 20.9 | 0.00 | 0.05 | 0.00 | 79 | 1004.2 |
| 20260505101146 | -1 | 215 | 9.7 | 25.7 | 0.00 | 0.05 | 0.00 | 79 | 1004.0 |
| 20260505100146 | -1 | 215 | 9.7 | 25.7 | 0.00 | 0.05 | 0.00 | 79 | 1004.0 |
| 20260505095146 | -1 | 307 | 3.2 | 19.3 | 0.00 | 0.05 | 0.00 | 79 | 1003.8 |
| 20260505094147 | -1 | 307 | 3.2 | 19.3 | 0.00 | 0.05 | 0.00 | 79 | 1003.8 |
| 20260505091146 | 0 | 192 | 3.2 | 20.9 | 0.00 | 0.05 | 0.00 | 80 | 1003.4 |
| 20260505090146 | 0 | 223 | 9.7 | 12.9 | 0.00 | 0.05 | 0.00 | 81 | 1003.1 |
| 20260505085146 | 0 | 223 | 9.7 | 12.9 | 0.00 | 0.05 | 0.00 | 81 | 1003.1 |
| 20260505084147 | 0 | 266 | 3.2 | 16.1 | 0.00 | 0.05 | 0.00 | 83 | 1003.1 |
| 20260505083146 | 0 | 266 | 3.2 | 16.1 | 0.00 | 0.05 | 0.00 | 83 | 1003.1 |
| 20260505082146 | -1 | 106 | 8.0 | 11.3 | 0.00 | 0.05 | 0.00 | 83 | 1003.0 |
| 20260505081146 | -1 | 106 | 8.0 | 11.3 | 0.00 | 0.05 | 0.00 | 83 | 1003.0 |
| 20260505080147 | 0 | 348 | 3.2 | 12.9 | 0.00 | 0.05 | 0.00 | 81 | 1002.9 |
| 20260505075147 | 0 | 348 | 3.2 | 12.9 | 0.00 | 0.05 | 0.00 | 81 | 1002.9 |
| 20260505074147 | 0 | 311 | 1.6 | 14.5 | 0.00 | 0.05 | 0.00 | 80 | 1002.9 |
| 20260505073147 | 0 | 311 | 1.6 | 14.5 | 0.00 | 0.05 | 0.00 | 80 | 1002.9 |
| 20260505072147 | 0 | 355 | 1.6 | 12.9 | 0.00 | 0.05 | 0.00 | 79 | 1002.7 |
| 20260505071147 | 0 | 355 | 1.6 | 12.9 | 0.00 | 0.05 | 0.00 | 79 | 1002.7 |
| 20260505070148 | 0 | 328 | 1.6 | 12.9 | 0.00 | 0.05 | 0.00 | 79 | 1002.7 |
| 20260505064148 | 0 | 281 | 1.6 | 14.5 | 0.00 | 0.05 | 0.00 | 80 | 1002.7 |
| 20260505063147 | 0 | 281 | 1.6 | 14.5 | 0.00 | 0.05 | 0.00 | 80 | 1002.7 |
| 20260505062148 | 0 | 300 | 6.4 | 9.7 | 0.00 | 0.05 | 0.00 | 79 | 1002.7 |
| 20260505061148 | 0 | 300 | 6.4 | 9.7 | 0.00 | 0.05 | 0.00 | 79 | 1002.7 |
| 20260505060147 | 0 | 306 | 3.2 | 11.3 | 0.00 | 0.05 | 0.00 | 79 | 1002.5 |
| 20260505055149 | 0 | 306 | 1.6 | 8.0 | 0.00 | 0.05 | 0.00 | 78 | 1002.4 |
| 20260505054148 | 0 | 306 | 1.6 | 8.0 | 0.00 | 0.05 | 0.00 | 78 | 1002.4 |
| 20260505053147 | 0 | 342 | 1.6 | 11.3 | 0.00 | 0.05 | 0.00 | 78 | 1002.3 |
| 20260505052147 | 0 | 342 | 1.6 | 11.3 | 0.00 | 0.05 | 0.00 | 78 | 1002.3 |
| 20260505051148 | 1 | 294 | 1.6 | 11.3 | 0.00 | 0.05 | 0.05 | 79 | 1002.1 |
| 20260505050148 | 1 | 294 | 1.6 | 11.3 | 0.00 | 0.05 | 0.05 | 79 | 1002.1 |
| 20260505041149 | 1 | 290 | 8.0 | 11.3 | 0.00 | 0.05 | 0.05 | 76 | 1001.7 |
| 20260505040149 | 1 | 290 | 8.0 | 11.3 | 0.00 | 0.05 | 0.05 | 76 | 1001.7 |
| 20260505035149 | 1 | 334 | 0.0 | 9.7 | 0.00 | 0.05 | 0.05 | 75 | 1001.8 |
| 20260505034148 | 1 | 334 | 0.0 | 9.7 | 0.00 | 0.05 | 0.05 | 75 | 1001.8 |
| 20260505033149 | 2 | 299 | 1.6 | 16.1 | 0.00 | 0.05 | 0.05 | 74 | 1001.7 |
| 20260505032148 | 2 | 299 | 1.6 | 16.1 | 0.00 | 0.05 | 0.05 | 74 | 1001.7 |
| 20260505031149 | 2 | 300 | 1.6 | 11.3 | 0.00 | 0.05 | 0.05 | 73 | 1001.4 |
| 20260505030149 | 2 | 300 | 1.6 | 11.3 | 0.00 | 0.05 | 0.05 | 73 | 1001.4 |
| 20260505025148 | 2 | 209 | 4.8 | 14.5 | 0.00 | 0.05 | 0.05 | 71 | 1001.2 |
| 20260505024149 | 2 | 219 | 4.8 | 11.3 | 0.00 | 0.05 | 0.05 | 71 | 1001.0 |
| 20260505023150 | 2 | 219 | 4.8 | 11.3 | 0.00 | 0.05 | 0.05 | 71 | 1001.0 |
| 20260505022149 | 3 | 243 | 4.8 | 17.7 | 0.00 | 0.05 | 0.05 | 70 | 1000.8 |
| 20260505021149 | 3 | 243 | 4.8 | 17.7 | 0.00 | 0.05 | 0.05 | 70 | 1000.8 |
| 20260505020149 | 3 | 232 | 3.2 | 11.3 | 0.00 | 0.05 | 0.05 | 65 | 1000.6 |
| 20260505015149 | 3 | 232 | 3.2 | 11.3 | 0.00 | 0.05 | 0.05 | 65 | 1000.6 |
| 20260505014149 | 4 | 315 | 1.6 | 14.5 | 0.00 | 0.05 | 0.05 | 60 | 1000.1 |
| 20260505013150 | 4 | 315 | 1.6 | 14.5 | 0.00 | 0.05 | 0.05 | 60 | 1000.1 |
| 20260505012149 | 4 | 306 | 1.6 | 12.9 | 0.00 | 0.05 | 0.05 | 59 | 999.9 |
| 20260505011149 | 4 | 306 | 1.6 | 12.9 | 0.00 | 0.05 | 0.05 | 59 | 999.9 |
| 20260505010150 | 4 | 268 | 6.4 | 17.7 | 0.00 | 0.05 | 0.05 | 58 | 999.7 |
| 20260505005149 | 4 | 268 | 6.4 | 17.7 | 0.00 | 0.05 | 0.05 | 58 | 999.7 |
| 20260505004149 | 5 | 242 | 3.2 | 25.7 | 0.00 | 0.05 | 0.05 | 58 | 999.5 |
| 20260505003149 | 5 | 242 | 3.2 | 25.7 | 0.00 | 0.05 | 0.05 | 58 | 999.5 |
| 20260505002150 | 5 | 317 | 3.2 | 30.6 | 0.00 | 0.05 | 0.05 | 59 | 999.4 |
| 20260505001149 | 5 | 317 | 3.2 | 30.6 | 0.00 | 0.05 | 0.05 | 59 | 999.4 |
| 20260505000151 | 5 | 5 | 14.5 | 17.7 | 0.00 | 0.05 | 0.05 | 60 | 999.2 |
| 20260504234151 | 5 | 237 | 9.7 | 22.5 | 0.00 | 0.05 | 0.05 | 62 | 999.0 |
| 20260504233150 | 5 | 18 | 6.4 | 29.0 | 0.00 | 0.05 | 0.05 | 61 | 998.8 |
| 20260504232150 | 5 | 18 | 6.4 | 29.0 | 0.00 | 0.05 | 0.05 | 61 | 998.8 |
| 20260504231151 | 6 | 244 | 8.0 | 20.9 | 0.00 | 0.05 | 0.05 | 59 | 998.4 |
| 20260504230150 | 6 | 244 | 8.0 | 20.9 | 0.00 | 0.05 | 0.05 | 59 | 998.4 |
| 20260504225151 | 5 | 196 | 9.7 | 24.1 | 0.00 | 0.05 | 0.05 | 59 | 998.2 |
| 20260504224150 | 5 | 196 | 9.7 | 24.1 | 0.00 | 0.05 | 0.05 | 59 | 998.2 |
| 20260504223150 | 6 | 234 | 19.3 | 16.1 | 0.00 | 0.05 | 0.05 | 59 | 997.8 |
| 20260504222151 | 6 | 234 | 19.3 | 16.1 | 0.00 | 0.05 | 0.05 | 59 | 997.8 |
| 20260504221150 | 6 | 315 | 8.0 | 24.1 | 0.00 | 0.05 | 0.05 | 60 | 997.7 |
| 20260504220150 | 6 | 315 | 8.0 | 24.1 | 0.00 | 0.05 | 0.05 | 60 | 997.7 |
| 20260504215151 | 6 | 117 | 3.2 | 24.1 | 0.00 | 0.05 | 0.05 | 60 | 997.3 |
| 20260504214150 | 6 | 117 | 3.2 | 24.1 | 0.00 | 0.05 | 0.05 | 60 | 997.3 |
| 20260504213151 | 7 | 147 | 4.8 | 25.7 | 0.00 | 0.05 | 0.05 | 56 | 996.9 |
| 20260504212151 | 7 | 147 | 4.8 | 25.7 | 0.00 | 0.05 | 0.05 | 56 | 996.9 |
| 20260504211150 | 6 | 36 | 9.7 | 20.9 | 0.00 | 0.05 | 0.05 | 55 | 996.6 |
| 20260504210151 | 6 | 36 | 9.7 | 20.9 | 0.00 | 0.05 | 0.05 | 55 | 996.6 |
| 20260504205152 | 7 | 341 | 6.4 | 25.7 | 0.00 | 0.05 | 0.05 | 54 | 996.3 |
| 20260504204150 | 7 | 341 | 6.4 | 25.7 | 0.00 | 0.05 | 0.05 | 54 | 996.3 |
| 20260504203150 | 7 | 22 | 8.0 | 32.2 | 0.00 | 0.05 | 0.05 | 52 | 996.2 |
| 20260504202150 | 8 | 159 | 6.4 | 22.5 | 0.00 | 0.05 | 0.05 | 51 | 995.7 |
| 20260504201151 | 8 | 159 | 6.4 | 22.5 | 0.00 | 0.05 | 0.05 | 51 | 995.7 |
| 20260504200151 | 8 | 309 | 8.0 | 24.1 | 0.00 | 0.05 | 0.05 | 55 | 995.4 |
| 20260504195150 | 8 | 309 | 8.0 | 24.1 | 0.00 | 0.05 | 0.05 | 55 | 995.4 |
| 20260504194152 | 8 | 286 | 12.9 | 30.6 | 0.00 | 0.05 | 0.05 | 55 | 995.4 |
| 20260504193152 | 8 | 286 | 12.9 | 30.6 | 0.00 | 0.05 | 0.05 | 55 | 995.4 |
| 20260504192152 | 8 | 184 | 11.3 | 24.1 | 0.00 | 0.05 | 0.05 | 53 | 995.0 |
| 20260504191151 | 8 | 184 | 11.3 | 24.1 | 0.00 | 0.05 | 0.05 | 53 | 995.0 |
| 20260504190152 | 8 | 177 | 9.7 | 29.0 | 0.00 | 0.05 | 0.05 | 56 | 994.8 |
| 20260504184152 | 8 | 223 | 8.0 | 20.9 | 0.00 | 0.05 | 0.05 | 54 | 994.2 |
| 20260504182151 | 8 | 292 | 3.2 | 24.1 | 0.00 | 0.05 | 0.05 | 58 | 994.2 |
| 20260504181151 | 8 | 292 | 3.2 | 24.1 | 0.00 | 0.05 | 0.05 | 58 | 994.2 |
| 20260504180151 | 8 | 187 | 9.7 | 25.7 | 0.00 | 0.05 | 0.05 | 54 | 993.6 |
| 20260504174152 | 8 | 324 | 11.3 | 29.0 | 0.00 | 0.05 | 0.05 | 59 | 993.3 |
| 20260504173152 | 8 | 324 | 11.3 | 29.0 | 0.00 | 0.05 | 0.05 | 59 | 993.3 |
| 20260504172153 | 8 | 13 | 6.4 | 30.6 | 0.00 | 0.05 | 0.05 | 59 | 993.3 |
| 20260504171151 | 8 | 274 | 6.4 | 33.8 | 0.00 | 0.05 | 0.05 | 64 | 993.3 |
| 20260504170152 | 8 | 274 | 6.4 | 33.8 | 0.00 | 0.05 | 0.05 | 64 | 993.3 |
| 20260504160152 | 7 | 311 | 12.9 | 25.7 | 0.00 | 0.05 | 0.05 | 67 | 992.2 |
| 20260504150152 | 8 | 294 | 9.7 | 20.9 | 0.00 | 0.05 | 0.05 | 72 | 990.9 |
| 20260504141152 | 7 | 210 | 1.6 | 22.5 | 0.00 | 0.05 | 0.05 | 86 | 990.1 |
| 20260504140152 | 7 | 299 | 6.4 | 19.3 | 0.00 | 0.05 | 0.05 | 86 | 990.2 |